Regional Weather Roundup
Issued by NWS Mt. Holly, NJ

Home | Current Version | Previous Version | Text Only | Print | Product List | Glossary On
Versions: 1 2 3 4 5 6 7 8 9 10 11 12 13 14 15 16 17 18 19 20 21 22 23 24 25 26 27 28 29 30 31 32 33 34 35 36 37 38 39 40 41 42 43 44 45 46 47 48 49 50
000
ASUS41 KPHI 231810
RWRPHI

REGIONAL WEATHER ROUNDUP
NATIONAL WEATHER SERVICE MOUNT HOLLY NJ
200 PM EDT SAT AUG 23 2014

NOTE:  "FAIR" INDICATES FEW OR NO CLOUDS BELOW 12,000 FEET WITH NO
SIGNIFICANT WEATHER AND/OR OBSTRUCTIONS TO VISIBILITY.

 * = STATION DOES NOT REPORT PRECIPITATION (E.G. RAIN, SNOW, ETC.)
        OR FOG.

NJZ015>026-231900-
SOUTHERN NEW JERSEY

CITY           SKY/WX    TMP DP  RH WIND       PRES   REMARKS
POMONA         CLOUDY    71  63  75 E13       30.07R
6HR MIN TEMP:  69; 6HR MAX TEMP:  75; 6HR PCP: TRACE;

RIO GRANDE*    CLOUDY    75  61  60 E14G20    30.05F
MILLVILLE      CLOUDY    74  62  66 E14       30.05S
WRIGHTSTOWN    PTSUNNY   68  64  88 E9        30.06S
MOUNT HOLLY    CLOUDY    70  64  81 E3        30.08R
TRENTON        CLOUDY    70  60  70 E10       30.08S
6HR MIN TEMP:  66; 6HR MAX TEMP:  71; 6HR PCP:  0.02;


$$
NJZ001>014-231900-
NORTHERN NEW JERSEY

CITY           SKY/WX    TMP DP  RH WIND       PRES   REMARKS
SUSSEX         CLOUDY    72  59  63 NE7       30.10S
ANDOVER*         N/A     68  60  75 VRB3      30.11S
MORRISTOWN     PTSUNNY   72  63  73 E8        30.10S
NEWARK         LGT RAIN  72  59  63 VRB6      30.08F
TETERBORO      CLOUDY    73  56  54 E8        30.08S
CALDWELL       PTSUNNY   72  58  61 E8        30.10S
SOMERVILLE     LGT RAIN  70  64  81 CALM      30.08S
ALLAIRE*       CLOUDY    70  61  73 E12       30.09S
TOMS RIVER*    CLOUDY    70  63  78 E8        30.08S

$$
PAZ043-044-047-054-055-060>062-066>071-231900-
EASTERN PENNSYLVANIA

CITY           SKY/WX    TMP DP  RH WIND       PRES   REMARKS
PHILADELPHIA   CLOUDY    71  65  81 SE8       30.08R
6HR MIN TEMP:  68; 6HR MAX TEMP:  74; 6HR PCP:  0.16;

NORTH PHILA    CLOUDY    73  62  68 E10       30.09S
BLUE BELL      PTSUNNY   68  64  88 NE5       30.08S
DOYLESTOWN     CLOUDY    70  63  78 MISG      30.09R
QUAKERTOWN*    CLOUDY    70  63  78 MISG      30.10S
POTTSTOWN      CLOUDY    70  63  78 NE10      30.09S
LANCASTER      CLOUDY    71  61  70 E8        30.08R
COATESVILLE    LGT RAIN  66 -31   1 E7        30.09S
READING        CLOUDY    68  62  81 E5        30.09R
6HR MIN TEMP:  65; 6HR MAX TEMP:  69; 6HR PCP:  0.02;

ALLENTOWN      CLOUDY    69  62  78 NE8       30.10R
6HR MIN TEMP:  64; 6HR MAX TEMP:  72; 6HR PCP:  0.06;

MOUNT POCONO   CLOUDY    62  59  90 E7        30.14R
6HR MIN TEMP:  60; 6HR MAX TEMP:  62; 6HR PCP:  0.15;

HAZLETON       CLOUDY    63  59  88 SE7       30.15S
WILKES BARRE   CLOUDY    67  61  81 CALM      30.11S

$$
DEZALL-MDZ008-012-015-019-020-231900-
DELAWARE AND EASTERN MARYLAND

CITY           SKY/WX    TMP DP  RH WIND       PRES   REMARKS
WILMINGTON     CLOUDY    74  64  71 E10       30.07S
6HR MIN TEMP:  69; 6HR MAX TEMP:  75; 6HR PCP: TRACE;

DOVER          PTSUNNY   75  65  69 E14       30.04R
GEORGETOWN     CLOUDY    74  64  71 E14       30.05R
6HR MIN TEMP:  70; 6HR MAX TEMP:  78;

EASTON         LGT RAIN  73  73 100 CALM      30.07R
PATUXENT       CLOUDY    76  66  71 VRB3      30.01F
OCEAN CITY     CLOUDY    76  66  71 E14       30.02F
WALLOPS ISLAND PTSUNNY   79  68  69 E15       30.02S
CAMBRIDGE      PTSUNNY   77  70  78 CALM      30.01F
SALISBURY      CLOUDY    77  67  71 E9        30.02S

$$
PAZ001-021-NYZ056-072-MDZ011-DCZ001-231900-
OTHER NEARBY LOCATIONS

CITY           SKY/WX    TMP DP  RH WIND       PRES   REMARKS
HARRISBURG     CLOUDY    72  62  71 E10       30.06S
STATE COLLEGE  CLOUDY    66  63  88 CALM      30.09
WILLIAMSPORT   LGT RAIN  67  61  81 E10       30.08S
BINGHAMTON     CLOUDY    63  61  93 E7        30.13R
NEW YORK CITY  PTSUNNY   73  54  51 NE9G16    30.12S
BALTIMORE      CLOUDY    72  68  88 E7        30.04S
WASHINGTON DC  CLOUDY    76  65  68 E5        30.04S

$$


USA.gov is the U.S. government's official web portal to all federal, state and local government web resources and services.